SFR323 FACT-FAOR

Flight info

Callsign SFR323
Flight time 1h 44m
Altitude 35000
Route KODES1A KODES UQ42 OKLOK UQ52 APLEN DCT EVESI/N0400F230 Z41 UNRAG Z2 NIBEX NIBEX1B
Aircraft B738/M-SDE2E3FGHIRWXY/LB1

Departure

Time 2026-05-03 23:43
Airport Cape Town International Airport (FACT)

Arrival

Time 2026-05-04 01:28
Airport O.R. Tambo International Airport (FAOR)
Time Latitude Longitude Altitude Speed Heading
2026-05-03 23:02 -33.96641 18.59718 166 ft 0 kts 254°
2026-05-03 23:27 -33.96638 18.59731 166 ft 2 kts 255°
2026-05-03 23:27 -33.96634 18.59750 166 ft 3 kts 255°
2026-05-03 23:28 -33.96629 18.59773 166 ft 3 kts 255°
2026-05-03 23:28 -33.96623 18.59795 166 ft 2 kts 244°
2026-05-03 23:28 -33.96616 18.59806 166 ft 2 kts 195°
2026-05-03 23:28 -33.96605 18.59807 166 ft 2 kts 171°
2026-05-03 23:29 -33.96602 18.59807 166 ft 0 kts 171°
2026-05-03 23:33 -33.96618 18.59811 166 ft 6 kts 167°
2026-05-03 23:33 -33.96673 18.59828 166 ft 9 kts 166°
2026-05-03 23:33 -33.96734 18.59847 166 ft 9 kts 165°
2026-05-03 23:33 -33.96794 18.59867 166 ft 9 kts 163°
2026-05-03 23:34 -33.96852 18.59887 166 ft 9 kts 163°
2026-05-03 23:34 -33.96910 18.59907 166 ft 8 kts 165°
2026-05-03 23:34 -33.96969 18.59925 166 ft 9 kts 166°
2026-05-03 23:34 -33.97034 18.59944 166 ft 10 kts 166°
2026-05-03 23:35 -33.97102 18.59960 166 ft 10 kts 167°
2026-05-03 23:35 -33.97168 18.59978 166 ft 10 kts 167°
2026-05-03 23:35 -33.97232 18.59997 166 ft 9 kts 167°
2026-05-03 23:35 -33.97296 18.60016 166 ft 12 kts 165°
2026-05-03 23:36 -33.97399 18.60051 166 ft 16 kts 164°
2026-05-03 23:36 -33.97502 18.60089 166 ft 15 kts 157°
2026-05-03 23:36 -33.97596 18.60140 166 ft 15 kts 159°
2026-05-03 23:36 -33.97685 18.60179 166 ft 9 kts 160°
2026-05-03 23:37 -33.97744 18.60205 166 ft 12 kts 160°
2026-05-03 23:37 -33.97829 18.60241 166 ft 13 kts 160°
2026-05-03 23:37 -33.97912 18.60277 165 ft 13 kts 160°
2026-05-03 23:37 -33.97994 18.60312 164 ft 12 kts 160°
2026-05-03 23:38 -33.98074 18.60346 163 ft 12 kts 161°
2026-05-03 23:38 -33.98154 18.60380 162 ft 12 kts 161°
2026-05-03 23:38 -33.98234 18.60414 161 ft 12 kts 160°
2026-05-03 23:38 -33.98312 18.60448 160 ft 12 kts 160°
2026-05-03 23:39 -33.98413 18.60491 159 ft 19 kts 160°
2026-05-03 23:39 -33.98525 18.60540 157 ft 14 kts 160°
2026-05-03 23:39 -33.98617 18.60580 156 ft 14 kts 160°
2026-05-03 23:39 -33.98705 18.60617 155 ft 13 kts 160°
2026-05-03 23:40 -33.98788 18.60658 154 ft 13 kts 141°
2026-05-03 23:40 -33.98795 18.60729 154 ft 6 kts 76°
2026-05-03 23:40 -33.98786 18.60773 154 ft 1 kts 75°
2026-05-03 23:41 -33.98785 18.60779 154 ft 2 kts 75°
2026-05-03 23:42 -33.98778 18.60808 154 ft 5 kts 73°
2026-05-03 23:42 -33.98755 18.60860 154 ft 10 kts 51°
2026-05-03 23:42 -33.98689 18.60863 154 ft 13 kts 345°
2026-05-03 23:42 -33.98378 18.60766 155 ft 83 kts 345°
2026-05-03 23:43 -33.97590 18.60512 154 ft 149 kts 344°
2026-05-03 23:43 -33.96461 18.60151 592 ft 173 kts 348°
2026-05-03 23:43 -33.95278 18.59773 1484 ft 177 kts 345°
2026-05-03 23:43 -33.94106 18.59373 2414 ft 171 kts 343°
2026-05-03 23:44 -33.92982 18.59090 3099 ft 163 kts 351°
2026-05-03 23:44 -33.91874 18.58802 3737 ft 166 kts 343°
2026-05-03 23:44 -33.90663 18.58431 4009 ft 192 kts 343°
2026-05-03 23:44 -33.89307 18.58018 4276 ft 211 kts 343°
2026-05-03 23:45 -33.87826 18.57569 4543 ft 234 kts 343°
2026-05-03 23:45 -33.86190 18.57073 4804 ft 247 kts 343°
2026-05-03 23:45 -33.84518 18.56576 5042 ft 247 kts 343°
2026-05-03 23:45 -33.82850 18.56092 5293 ft 247 kts 343°
2026-05-03 23:46 -33.81168 18.55612 5538 ft 248 kts 343°
2026-05-03 23:46 -33.79484 18.55139 5796 ft 249 kts 343°
2026-05-03 23:46 -33.77791 18.54668 6052 ft 250 kts 343°
2026-05-03 23:46 -33.76089 18.54203 6307 ft 252 kts 343°
2026-05-03 23:47 -33.74371 18.53743 6557 ft 253 kts 343°
2026-05-03 23:47 -33.72651 18.53288 6792 ft 254 kts 343°
2026-05-03 23:47 -33.70917 18.52832 7040 ft 255 kts 343°
2026-05-03 23:47 -33.69167 18.52429 7276 ft 259 kts 353°
2026-05-03 23:48 -33.67418 18.53001 7670 ft 269 kts 30°
2026-05-03 23:48 -33.65972 18.54472 8351 ft 275 kts 34°
2026-05-03 23:48 -33.64494 18.55978 8989 ft 280 kts 33°
2026-05-03 23:48 -33.62984 18.57496 9644 ft 285 kts 33°
2026-05-03 23:49 -33.61467 18.59012 10252 ft 289 kts 32°
2026-05-03 23:49 -33.59905 18.60566 10856 ft 293 kts 31°
2026-05-03 23:49 -33.58326 18.62134 11468 ft 297 kts 31°
2026-05-03 23:49 -33.56722 18.63721 12090 ft 300 kts 30°
2026-05-03 23:50 -33.55104 18.65320 12723 ft 303 kts 30°
2026-05-03 23:50 -33.54024 18.66385 13156 ft 305 kts 29°
2026-05-03 23:50 -33.51821 18.68558 14004 ft 308 kts 28°
2026-05-03 23:50 -33.50159 18.70195 14586 ft 311 kts 28°
2026-05-03 23:51 -33.48480 18.71848 15177 ft 312 kts 28°
2026-05-03 23:51 -33.46796 18.73504 15788 ft 314 kts 28°
2026-05-03 23:51 -33.45122 18.75150 16383 ft 315 kts 28°
2026-05-03 23:51 -33.43428 18.76816 17021 ft 315 kts 27°
2026-05-03 23:52 -33.41734 18.78482 17655 ft 315 kts 27°
2026-05-03 23:52 -33.40040 18.80145 18298 ft 314 kts 27°
2026-05-03 23:52 -33.38352 18.81802 18860 ft 313 kts 26°
2026-05-03 23:52 -33.36668 18.83455 19441 ft 312 kts 26°
2026-05-03 23:53 -33.34999 18.85092 20021 ft 309 kts 25°
2026-05-03 23:53 -33.33343 18.86718 20611 ft 306 kts 25°
2026-05-03 23:53 -33.31702 18.88325 21167 ft 304 kts 25°
2026-05-03 23:53 -33.30061 18.89927 21646 ft 305 kts 24°
2026-05-03 23:54 -33.28403 18.91541 22020 ft 310 kts 24°
2026-05-03 23:54 -33.26722 18.93176 22420 ft 313 kts 24°
2026-05-03 23:54 -33.25047 18.94807 22821 ft 316 kts 24°
2026-05-03 23:54 -33.23333 18.96477 23227 ft 319 kts 24°
2026-05-03 23:55 -33.21600 18.98166 23620 ft 322 kts 24°
2026-05-03 23:55 -33.19854 18.99867 23959 ft 325 kts 24°
2026-05-03 23:55 -33.18099 19.01578 24309 ft 327 kts 24°
2026-05-03 23:55 -33.16326 19.03305 24667 ft 330 kts 24°
2026-05-03 23:56 -33.14537 19.05045 25006 ft 333 kts 24°
2026-05-03 23:56 -33.12736 19.06797 25358 ft 335 kts 24°
2026-05-03 23:56 -33.10922 19.08561 25628 ft 339 kts 24°
2026-05-03 23:56 -33.09087 19.10343 26031 ft 342 kts 25°
2026-05-03 23:57 -33.07254 19.12126 26406 ft 346 kts 25°
2026-05-03 23:57 -33.05349 19.13974 26764 ft 350 kts 25°
2026-05-03 23:57 -33.03448 19.15818 27149 ft 354 kts 25°
2026-05-03 23:57 -33.01533 19.17675 27536 ft 357 kts 25°
2026-05-03 23:58 -32.99630 19.19522 27907 ft 358 kts 25°
2026-05-03 23:58 -32.97692 19.21401 28315 ft 360 kts 25°
2026-05-03 23:58 -32.95740 19.23293 28695 ft 362 kts 25°
2026-05-03 23:58 -32.93779 19.25192 29094 ft 363 kts 25°
2026-05-03 23:59 -32.91815 19.27093 29500 ft 364 kts 25°
2026-05-03 23:59 -32.89849 19.28996 29900 ft 364 kts 25°
2026-05-03 23:59 -32.88544 19.30257 30159 ft 364 kts 25°
2026-05-03 23:59 -32.85922 19.32792 30623 ft 363 kts 25°
2026-05-04 00:00 -32.84626 19.34043 30852 ft 363 kts 25°
2026-05-04 00:00 -32.82651 19.35943 31079 ft 366 kts 25°
2026-05-04 00:00 -32.80678 19.37899 31321 ft 374 kts 30°
2026-05-04 00:00 -32.78868 19.40155 31545 ft 384 kts 34°
2026-05-04 00:01 -32.77083 19.42536 31795 ft 385 kts 34°
2026-05-04 00:01 -32.75311 19.44938 32046 ft 387 kts 34°
2026-05-04 00:01 -32.73541 19.47344 32291 ft 387 kts 34°
2026-05-04 00:01 -32.71763 19.49751 32554 ft 387 kts 34°
2026-05-04 00:02 -32.69975 19.52158 32756 ft 389 kts 34°
2026-05-04 00:02 -32.68173 19.54572 32961 ft 391 kts 34°
2026-05-04 00:02 -32.66361 19.56993 33167 ft 393 kts 34°
2026-05-04 00:02 -32.64541 19.59419 33386 ft 394 kts 34°
2026-05-04 00:03 -32.62735 19.61824 33585 ft 396 kts 34°
2026-05-04 00:03 -32.60901 19.64264 33790 ft 397 kts 34°
2026-05-04 00:03 -32.59062 19.66710 33994 ft 398 kts 34°
2026-05-04 00:03 -32.57217 19.69161 34183 ft 398 kts 34°
2026-05-04 00:04 -32.55372 19.71612 34360 ft 398 kts 34°
2026-05-04 00:04 -32.53525 19.74064 34536 ft 399 kts 34°
2026-05-04 00:04 -32.51678 19.76513 34717 ft 399 kts 34°
2026-05-04 00:04 -32.49833 19.78960 34902 ft 398 kts 33°
2026-05-04 00:05 -32.47982 19.81410 35030 ft 400 kts 33°
2026-05-04 00:05 -32.46107 19.83882 35021 ft 405 kts 34°
2026-05-04 00:05 -32.42287 19.88911 35046 ft 416 kts 34°
2026-05-04 00:06 -32.38367 19.94076 35048 ft 427 kts 34°
2026-05-04 00:06 -32.34378 19.99332 35044 ft 437 kts 35°
2026-05-04 00:07 -32.30266 20.04745 35049 ft 447 kts 35°
2026-05-04 00:07 -32.26061 20.10272 35050 ft 457 kts 36°
2026-05-04 00:08 -32.21766 20.15910 35061 ft 466 kts 36°
2026-05-04 00:08 -32.17379 20.21656 35046 ft 476 kts 36°
2026-05-04 00:09 -32.12908 20.27509 35038 ft 483 kts 36°
2026-05-04 00:09 -32.08380 20.33429 35038 ft 488 kts 36°
2026-05-04 00:10 -32.03816 20.39386 35042 ft 491 kts 37°
2026-05-04 00:10 -31.99221 20.45372 35047 ft 493 kts 37°
2026-05-04 00:11 -31.94607 20.51370 35041 ft 495 kts 37°
2026-05-04 00:11 -31.89978 20.57378 35041 ft 496 kts 37°
2026-05-04 00:12 -31.85359 20.63361 35045 ft 497 kts 37°
2026-05-04 00:12 -31.80710 20.69375 35043 ft 497 kts 37°
2026-05-04 00:13 -31.76047 20.75396 35039 ft 498 kts 37°
2026-05-04 00:13 -31.71375 20.81419 35039 ft 499 kts 37°
2026-05-04 00:14 -31.66692 20.87446 35039 ft 499 kts 37°
2026-05-04 00:14 -31.62009 20.93463 35030 ft 499 kts 37°
2026-05-04 00:15 -31.57318 20.99482 35032 ft 500 kts 37°
2026-05-04 00:15 -31.52623 21.05495 35037 ft 500 kts 37°
2026-05-04 00:16 -31.47948 21.11473 35033 ft 500 kts 37°
2026-05-04 00:16 -31.43284 21.17440 35015 ft 486 kts 37°
2026-05-04 00:17 -31.38776 21.23205 35029 ft 476 kts 37°
2026-05-04 00:17 -31.34300 21.28890 35033 ft 474 kts 37°
2026-05-04 00:18 -31.29834 21.34555 35038 ft 472 kts 37°
2026-05-04 00:18 -31.25409 21.40165 35038 ft 472 kts 37°
2026-05-04 00:19 -31.20950 21.45812 35041 ft 473 kts 37°
2026-05-04 00:19 -31.16476 21.51470 35030 ft 475 kts 37°
2026-05-04 00:20 -31.11984 21.57145 35040 ft 476 kts 37°
2026-05-04 00:20 -31.07469 21.62840 35041 ft 478 kts 37°
2026-05-04 00:21 -31.02940 21.68546 35039 ft 480 kts 37°
2026-05-04 00:21 -30.98394 21.74264 35050 ft 481 kts 37°
2026-05-04 00:22 -30.93838 21.79986 35050 ft 482 kts 38°
2026-05-04 00:22 -30.89297 21.85681 35057 ft 483 kts 38°
2026-05-04 00:23 -30.84723 21.91409 35051 ft 483 kts 38°
2026-05-04 00:23 -30.80149 21.97130 35049 ft 483 kts 38°
2026-05-04 00:24 -30.75596 22.02876 35053 ft 485 kts 41°
2026-05-04 00:24 -30.71404 22.09064 35060 ft 488 kts 44°
2026-05-04 00:25 -30.67334 22.15378 35057 ft 488 kts 44°
2026-05-04 00:25 -30.63270 22.21639 35055 ft 487 kts 44°
2026-05-04 00:26 -30.59160 22.27890 35055 ft 486 kts 44°
2026-05-04 00:26 -30.55038 22.34118 35064 ft 486 kts 44°
2026-05-04 00:27 -30.50902 22.40353 35057 ft 487 kts 44°
2026-05-04 00:27 -30.46770 22.46578 35058 ft 487 kts 44°
2026-05-04 00:28 -30.42635 22.52798 35058 ft 487 kts 44°
2026-05-04 00:28 -30.38513 22.58990 35062 ft 488 kts 44°
2026-05-04 00:29 -30.34355 22.65228 35060 ft 488 kts 44°
2026-05-04 00:29 -30.30196 22.71457 35065 ft 489 kts 44°
2026-05-04 00:30 -30.26025 22.77692 35063 ft 489 kts 44°
2026-05-04 00:30 -30.21878 22.83882 35070 ft 490 kts 44°
2026-05-04 00:31 -30.17705 22.90104 35067 ft 490 kts 44°
2026-05-04 00:31 -30.13524 22.96327 35073 ft 490 kts 44°
2026-05-04 00:32 -30.09337 23.02548 35073 ft 490 kts 44°
2026-05-04 00:32 -30.05149 23.08762 35072 ft 490 kts 44°
2026-05-04 00:33 -29.98855 23.18082 35068 ft 490 kts 44°
2026-05-04 00:34 -29.94655 23.24291 35074 ft 490 kts 44°
2026-05-04 00:34 -29.90477 23.30456 35075 ft 490 kts 44°
2026-05-04 00:35 -29.86268 23.36656 35080 ft 491 kts 45°
2026-05-04 00:35 -29.82052 23.42859 35080 ft 491 kts 45°
2026-05-04 00:36 -29.77842 23.49044 35090 ft 491 kts 45°
2026-05-04 00:36 -29.73645 23.55200 35089 ft 491 kts 45°
2026-05-04 00:37 -29.69426 23.61379 35092 ft 491 kts 45°
2026-05-04 00:37 -29.65202 23.67556 35097 ft 491 kts 45°
2026-05-04 00:38 -29.60978 23.73723 35099 ft 491 kts 45°
2026-05-04 00:38 -29.56749 23.79888 35105 ft 491 kts 45°
2026-05-04 00:39 -29.52522 23.86041 35105 ft 491 kts 45°
2026-05-04 00:39 -29.48285 23.92198 35105 ft 491 kts 45°
2026-05-04 00:40 -29.44051 23.98343 35113 ft 491 kts 45°
2026-05-04 00:40 -29.39808 24.04492 35115 ft 491 kts 45°
2026-05-04 00:41 -29.35565 24.10631 35113 ft 492 kts 45°
2026-05-04 00:41 -29.31307 24.16782 35124 ft 492 kts 45°
2026-05-04 00:42 -29.27073 24.22891 35122 ft 492 kts 45°
2026-05-04 00:42 -29.22811 24.29029 35129 ft 493 kts 45°
2026-05-04 00:43 -29.18541 24.35171 35133 ft 493 kts 45°
2026-05-04 00:43 -29.14269 24.41308 35137 ft 493 kts 45°
2026-05-04 00:44 -29.09992 24.47442 35138 ft 493 kts 45°
2026-05-04 00:44 -29.06435 24.52535 35150 ft 493 kts 45°
2026-05-04 00:45 -29.02157 24.58653 35167 ft 493 kts 45°
2026-05-04 00:45 -28.97873 24.64771 35189 ft 493 kts 45°
2026-05-04 00:46 -28.93585 24.70886 35204 ft 493 kts 45°
2026-05-04 00:46 -28.89294 24.76996 35205 ft 493 kts 45°
2026-05-04 00:47 -28.85027 24.83063 35215 ft 493 kts 45°
2026-05-04 00:47 -28.80730 24.89163 35205 ft 493 kts 45°
2026-05-04 00:48 -28.76433 24.95256 35193 ft 493 kts 45°
2026-05-04 00:48 -28.72131 25.01346 35190 ft 493 kts 45°
2026-05-04 00:49 -28.67830 25.07428 35172 ft 493 kts 45°
2026-05-04 00:49 -28.63523 25.13511 35171 ft 492 kts 45°
2026-05-04 00:50 -28.59655 25.19931 35170 ft 501 kts 59°
2026-05-04 00:50 -28.57238 25.27416 35183 ft 506 kts 69°
2026-05-04 00:51 -28.55199 25.35091 35173 ft 506 kts 69°
2026-05-04 00:51 -28.53121 25.42744 35173 ft 506 kts 69°
2026-05-04 00:52 -28.50991 25.50362 35183 ft 505 kts 69°
2026-05-04 00:52 -28.48842 25.57968 35184 ft 505 kts 69°
2026-05-04 00:53 -28.46706 25.65523 35182 ft 504 kts 69°
2026-05-04 00:53 -28.44559 25.73113 35189 ft 504 kts 69°
2026-05-04 00:54 -28.42413 25.80679 35187 ft 503 kts 69°
2026-05-04 00:54 -28.40263 25.88247 35189 ft 503 kts 69°
2026-05-04 00:55 -28.38111 25.95802 35188 ft 502 kts 68°
2026-05-04 00:55 -28.35096 26.02834 35198 ft 492 kts 51°
2026-05-04 00:56 -28.30635 26.08601 35208 ft 483 kts 39°
2026-05-04 00:56 -28.25807 26.13914 35203 ft 483 kts 39°
2026-05-04 00:57 -28.21008 26.19251 35204 ft 484 kts 40°
2026-05-04 00:57 -28.16257 26.24598 35207 ft 485 kts 40°
2026-05-04 00:58 -28.11468 26.29994 35211 ft 485 kts 40°
2026-05-04 00:58 -28.06670 26.35391 35218 ft 486 kts 40°
2026-05-04 00:59 -28.01862 26.40788 35222 ft 487 kts 40°
2026-05-04 00:59 -27.97048 26.46180 35222 ft 487 kts 40°
2026-05-04 01:00 -27.92223 26.51576 35228 ft 488 kts 40°
2026-05-04 01:00 -27.87393 26.56973 35233 ft 488 kts 40°
2026-05-04 01:01 -27.82562 26.62365 35235 ft 488 kts 40°
2026-05-04 01:01 -27.77751 26.67729 35241 ft 488 kts 40°
2026-05-04 01:02 -27.72915 26.73113 35246 ft 488 kts 40°
2026-05-04 01:02 -27.68072 26.78498 35249 ft 488 kts 40°
2026-05-04 01:03 -27.63237 26.83866 35253 ft 488 kts 41°
2026-05-04 01:03 -27.58398 26.89233 35265 ft 487 kts 41°
2026-05-04 01:04 -27.53554 26.94597 35254 ft 488 kts 41°
2026-05-04 01:04 -27.51114 26.97295 34709 ft 493 kts 41°
2026-05-04 01:04 -27.48684 26.99982 34092 ft 485 kts 41°
2026-05-04 01:04 -27.46291 27.02630 33385 ft 478 kts 41°
2026-05-04 01:05 -27.43932 27.05237 32708 ft 472 kts 41°
2026-05-04 01:05 -27.41600 27.07813 32032 ft 465 kts 41°
2026-05-04 01:05 -27.39335 27.10311 31373 ft 460 kts 41°
2026-05-04 01:05 -27.37059 27.12820 30689 ft 453 kts 41°
2026-05-04 01:06 -27.34818 27.15288 29907 ft 450 kts 41°
2026-05-04 01:06 -27.32573 27.17756 29106 ft 456 kts 41°
2026-05-04 01:06 -27.30267 27.20289 28297 ft 470 kts 41°
2026-05-04 01:06 -27.27898 27.22891 27495 ft 482 kts 41°
2026-05-04 01:07 -27.25518 27.25512 26918 ft 472 kts 41°
2026-05-04 01:07 -27.23207 27.28056 26317 ft 459 kts 41°
2026-05-04 01:07 -27.20937 27.30547 25763 ft 455 kts 41°
2026-05-04 01:07 -27.18616 27.32928 25385 ft 446 kts 38°
2026-05-04 01:08 -27.16271 27.35175 24856 ft 443 kts 37°
2026-05-04 01:08 -27.13907 27.37376 24328 ft 439 kts 37°
2026-05-04 01:08 -27.11586 27.39527 23747 ft 440 kts 37°
2026-05-04 01:08 -27.09180 27.41765 23092 ft 446 kts 37°
2026-05-04 01:09 -27.06830 27.43967 22480 ft 445 kts 37°
2026-05-04 01:09 -27.04467 27.46193 21887 ft 441 kts 38°
2026-05-04 01:09 -27.02127 27.48405 21292 ft 437 kts 38°
2026-05-04 01:09 -26.99817 27.50589 20721 ft 433 kts 38°
2026-05-04 01:10 -26.97545 27.52739 20532 ft 420 kts 38°
2026-05-04 01:10 -26.95343 27.54821 20333 ft 408 kts 38°
2026-05-04 01:10 -26.93200 27.56845 20164 ft 396 kts 37°
2026-05-04 01:10 -26.91119 27.58808 19876 ft 388 kts 37°
2026-05-04 01:11 -26.89054 27.60752 19269 ft 386 kts 37°
2026-05-04 01:11 -26.87010 27.62677 18704 ft 382 kts 37°
2026-05-04 01:11 -26.84985 27.64583 18086 ft 378 kts 37°
2026-05-04 01:11 -26.82985 27.66464 17457 ft 374 kts 37°
2026-05-04 01:12 -26.80989 27.68297 16833 ft 368 kts 35°
2026-05-04 01:12 -26.78967 27.70025 16220 ft 363 kts 34°
2026-05-04 01:12 -26.76957 27.71698 15626 ft 358 kts 34°
2026-05-04 01:12 -26.74966 27.73352 15046 ft 355 kts 34°
2026-05-04 01:13 -26.72998 27.74994 14477 ft 351 kts 34°
2026-05-04 01:13 -26.71049 27.76629 13880 ft 348 kts 35°
2026-05-04 01:13 -26.69122 27.78251 13243 ft 345 kts 34°
2026-05-04 01:13 -26.67238 27.79840 12634 ft 342 kts 34°
2026-05-04 01:14 -26.65320 27.81458 12005 ft 339 kts 34°
2026-05-04 01:14 -26.63471 27.83019 11431 ft 337 kts 34°
2026-05-04 01:14 -26.61601 27.84596 10839 ft 335 kts 34°
2026-05-04 01:14 -26.59748 27.86160 10261 ft 333 kts 34°
2026-05-04 01:15 -26.57904 27.87714 9613 ft 330 kts 34°
2026-05-04 01:15 -26.56083 27.89255 9012 ft 328 kts 37°
2026-05-04 01:15 -26.54621 27.91206 8551 ft 328 kts 61°
2026-05-04 01:15 -26.53969 27.93589 8359 ft 320 kts 83°
2026-05-04 01:16 -26.54080 27.96072 8220 ft 322 kts 101°
2026-05-04 01:16 -26.54592 27.98438 8056 ft 301 kts 103°
2026-05-04 01:16 -26.55073 28.00594 7982 ft 270 kts 103°
2026-05-04 01:16 -26.55497 28.02533 7911 ft 243 kts 102°
2026-05-04 01:17 -26.55881 28.04248 7929 ft 220 kts 103°
2026-05-04 01:17 -26.56215 28.05839 7893 ft 201 kts 97°
2026-05-04 01:17 -26.56036 28.07318 7986 ft 199 kts 58°
2026-05-04 01:17 -26.55188 28.08627 7929 ft 210 kts 37°
2026-05-04 01:18 -26.54154 28.09629 7931 ft 189 kts 38°
2026-05-04 01:18 -26.53241 28.10556 7927 ft 167 kts 39°
2026-05-04 01:18 -26.52396 28.11416 7992 ft 162 kts 38°
2026-05-04 01:18 -26.51556 28.12282 7933 ft 163 kts 38°
2026-05-04 01:19 -26.50736 28.13134 7937 ft 160 kts 38°
2026-05-04 01:19 -26.49921 28.13981 7934 ft 161 kts 39°
2026-05-04 01:19 -26.49041 28.14737 7930 ft 161 kts 16°
2026-05-04 01:19 -26.47976 28.15048 7941 ft 159 kts 12°
2026-05-04 01:20 -26.46916 28.15386 7941 ft 158 kts 11°
2026-05-04 01:20 -26.45864 28.15706 7951 ft 154 kts 10°
2026-05-04 01:20 -26.44815 28.16023 7939 ft 158 kts 12°
2026-05-04 01:20 -26.43749 28.16365 7899 ft 159 kts 11°
2026-05-04 01:21 -26.42698 28.16688 7954 ft 158 kts 11°
2026-05-04 01:21 -26.41646 28.16981 7920 ft 157 kts 11°
2026-05-04 01:21 -26.40611 28.17312 7924 ft 153 kts 11°
2026-05-04 01:21 -26.39573 28.17613 7956 ft 158 kts 11°
2026-05-04 01:22 -26.38504 28.17954 7969 ft 159 kts 12°
2026-05-04 01:22 -26.37436 28.18293 7955 ft 159 kts 11°
2026-05-04 01:22 -26.36378 28.18625 7949 ft 157 kts 12°
2026-05-04 01:22 -26.35331 28.18955 7956 ft 157 kts 12°
2026-05-04 01:23 -26.34280 28.19285 7934 ft 157 kts 12°
2026-05-04 01:23 -26.33244 28.19605 7952 ft 154 kts 11°
2026-05-04 01:23 -26.32190 28.19928 7949 ft 160 kts 11°
2026-05-04 01:23 -26.31128 28.20253 7948 ft 157 kts 12°
2026-05-04 01:24 -26.30071 28.20584 7953 ft 159 kts 11°
2026-05-04 01:24 -26.29017 28.20911 7949 ft 155 kts 12°
2026-05-04 01:24 -26.27967 28.21224 7831 ft 160 kts 10°
2026-05-04 01:24 -26.26896 28.21557 7645 ft 157 kts 11°
2026-05-04 01:25 -26.25852 28.21906 7505 ft 157 kts 13°
2026-05-04 01:25 -26.24819 28.22271 7398 ft 156 kts 13°
2026-05-04 01:25 -26.23766 28.22616 7221 ft 158 kts 12°
2026-05-04 01:25 -26.22706 28.22924 7066 ft 157 kts
2026-05-04 01:26 -26.21657 28.23211 6776 ft 153 kts 11°
2026-05-04 01:26 -26.20622 28.23520 6461 ft 155 kts 13°
2026-05-04 01:26 -26.19587 28.23853 6118 ft 154 kts 15°
2026-05-04 01:26 -26.18562 28.24171 5931 ft 152 kts 14°
2026-05-04 01:27 -26.17551 28.24481 5760 ft 151 kts 14°
2026-05-04 01:27 -26.16530 28.24803 5570 ft 150 kts 14°
2026-05-04 01:27 -26.15582 28.25092 5516 ft 130 kts 14°
2026-05-04 01:27 -26.14835 28.25321 5506 ft 86 kts 16°
2026-05-04 01:28 -26.14453 28.25439 5506 ft 40 kts 17°
2026-05-04 01:28 -26.14203 28.25476 5510 ft 30 kts 354°
2026-05-04 01:28 -26.14030 28.25445 5510 ft 20 kts 351°
2026-05-04 01:28 -26.13897 28.25420 5509 ft 19 kts 350°
2026-05-04 01:29 -26.13768 28.25444 5507 ft 19 kts 15°
2026-05-04 01:29 -26.13646 28.25483 5503 ft 18 kts 16°
2026-05-04 01:29 -26.13529 28.25517 5501 ft 17 kts 14°
2026-05-04 01:29 -26.13413 28.25516 5511 ft 17 kts 346°
2026-05-04 01:30 -26.13301 28.25489 5519 ft 16 kts 348°
2026-05-04 01:30 -26.13229 28.25472 5524 ft 17 kts 348°
2026-05-04 01:30 -26.13068 28.25421 5531 ft 18 kts 334°
2026-05-04 01:30 -26.12967 28.25341 5531 ft 19 kts 317°
2026-05-04 01:31 -26.12890 28.25227 5531 ft 18 kts 298°
2026-05-04 01:31 -26.12847 28.25096 5535 ft 18 kts 286°
2026-05-04 01:31 -26.12814 28.24967 5536 ft 17 kts 286°
2026-05-04 01:31 -26.12793 28.24882 5531 ft 17 kts 286°
2026-05-04 01:32 -26.12762 28.24756 5531 ft 19 kts 285°
2026-05-04 01:32 -26.12727 28.24618 5532 ft 18 kts 286°
2026-05-04 01:32 -26.12692 28.24481 5534 ft 19 kts 286°
2026-05-04 01:32 -26.12657 28.24344 5539 ft 18 kts 285°
2026-05-04 01:33 -26.12622 28.24203 5536 ft 21 kts 285°
2026-05-04 01:33 -26.12581 28.24041 5537 ft 21 kts 286°
2026-05-04 01:33 -26.12554 28.23896 5538 ft 16 kts 251°
2026-05-04 01:33 -26.12650 28.23850 5543 ft 15 kts 195°
2026-05-04 01:34 -26.12758 28.23816 5544 ft 19 kts 195°
2026-05-04 01:34 -26.12896 28.23772 5544 ft 21 kts 197°
2026-05-04 01:34 -26.13034 28.23722 5543 ft 20 kts 199°
2026-05-04 01:34 -26.13170 28.23688 5545 ft 20 kts 195°
2026-05-04 01:35 -26.13301 28.23648 5546 ft 20 kts 195°
2026-05-04 01:35 -26.13425 28.23595 5546 ft 18 kts 232°
2026-05-04 01:35 -26.13427 28.23458 5546 ft 18 kts 276°
2026-05-04 01:35 -26.13451 28.23373 5547 ft 6 kts 196°
2026-05-04 01:36 -26.13495 28.23366 5547 ft 6 kts 187°
2026-05-04 01:36 -26.13539 28.23361 5546 ft 6 kts 187°
2026-05-04 01:36 -26.13607 28.23352 5550 ft 14 kts 186°
2026-05-04 01:36 -26.13701 28.23340 5549 ft 13 kts 190°
2026-05-04 01:37 -26.13761 28.23275 5548 ft 13 kts 264°
2026-05-04 01:37 -26.13751 28.23177 5548 ft 13 kts 277°
2026-05-04 01:37 -26.13740 28.23106 5550 ft 3 kts 308°
2026-05-04 01:37 -26.13728 28.23103 5548 ft 2 kts 347°
2026-05-04 01:38 -26.13707 28.23105 5550 ft 3 kts
2026-05-04 01:38 -26.13695 28.23106 5550 ft 1 kts
2026-05-04 01:38 -26.13690 28.23106 5549 ft 1 kts
2026-05-04 01:38 -26.13685 28.23107 5548 ft 0 kts